Time,TemperatureF,DewpointF,PressureIn,WindDirection,WindDirectionDegrees,WindSpeedMPH,WindSpeedGustMPH,Humidity,HourlyPrecipIn,Conditions,Clouds,dailyrainin,SoftwareType,DateUTC
2013-05-22 00:01:00,55.2,52.0,29.87,NNW,338,3.3,3.5,89,0.00,RA,,0.00,WeatherDisplay:10.37,2013-05-22 04:01:00,
2013-05-22 00:02:00,55.2,52.0,29.87,NNW,338,3.3,3.5,89,0.00,RA,,0.00,WeatherDisplay:10.37,2013-05-22 04:02:00,
2013-05-22 00:07:00,55.2,52.0,29.88,NNW,338,3.3,3.5,89,0.00,RA,,0.00,WeatherDisplay:10.37,2013-05-22 04:07:00,
2013-05-22 00:12:00,55.2,52.0,29.87,NNW,338,3.3,3.5,89,0.00,CLR,,0.00,WeatherDisplay:10.37,2013-05-22 04:12:00,
2013-05-22 00:17:00,55.4,52.2,29.87,NNW,338,3.3,3.5,89,0.00,CLR,,0.00,WeatherDisplay:10.37,2013-05-22 04:17:00,
2013-05-22 00:22:00,55.2,52.0,29.87,NNW,338,3.3,3.5,89,0.00,CLR,,0.00,WeatherDisplay:10.37,2013-05-22 04:22:00,
2013-05-22 00:27:00,55.2,52.0,29.87,NNW,338,3.3,3.5,89,0.00,CLR,,0.00,WeatherDisplay:10.37,2013-05-22 04:27:00,
2013-05-22 00:32:00,55.2,52.0,29.88,NW,315,1.6,2.3,89,0.00,CLR,,0.00,WeatherDisplay:10.37,2013-05-22 04:32:00,
2013-05-22 00:37:00,55.2,52.0,29.88,NW,315,5.4,5.4,89,0.00,CLR,,0.00,WeatherDisplay:10.37,2013-05-22 04:37:00,
2013-05-22 00:42:00,55.0,51.9,29.88,NW,315,1.8,4.6,89,0.00,CLR,,0.00,WeatherDisplay:10.37,2013-05-22 04:42:00,
2013-05-22 00:47:00,55.0,51.9,29.88,NNE,22,5.4,5.4,89,0.00,CLR,,0.00,WeatherDisplay:10.37,2013-05-22 04:47:00,
2013-05-22 00:52:00,55.0,52.2,29.88,NW,315,1.4,4.6,90,0.00,CLR,,0.00,WeatherDisplay:10.37,2013-05-22 04:52:00,
2013-05-22 00:57:00,54.9,51.7,29.89,NNW,338,2.9,3.5,89,0.00,CLR,,0.00,WeatherDisplay:10.37,2013-05-22 04:57:00,
2013-05-22 01:02:00,54.9,51.7,29.90,NW,315,1.8,2.3,89,0.00,CLR,,0.00,WeatherDisplay:10.37,2013-05-22 05:02:00,
2013-05-22 01:07:00,54.9,52.0,29.90,NE,45,9.2,9.2,90,0.00,CLR,,0.00,WeatherDisplay:10.37,2013-05-22 05:07:00,
2013-05-22 01:12:00,54.7,51.8,29.90,NW,315,2.4,3.5,90,0.00,CLR,,0.00,WeatherDisplay:10.37,2013-05-22 05:12:00,
2013-05-22 01:17:00,54.7,51.8,29.91,North,0,3.8,3.8,90,0.00,CLR,,0.00,WeatherDisplay:10.37,2013-05-22 05:17:00,
2013-05-22 01:22:00,54.5,51.6,29.91,NNW,338,8.1,8.1,90,0.00,CLR,,0.00,WeatherDisplay:10.37,2013-05-22 05:22:00,
2013-05-22 01:27:00,54.3,51.4,29.91,North,0,7.4,9.2,90,0.00,CLR,,0.00,WeatherDisplay:10.37,2013-05-22 05:27:00,
2013-05-22 01:32:00,54.1,51.3,29.91,NW,315,4.0,4.0,90,0.00,CLR,,0.00,WeatherDisplay:10.37,2013-05-22 05:32:00,
2013-05-22 01:37:00,54.1,51.3,29.91,WNW,292,7.6,7.6,90,0.00,CLR,,0.00,WeatherDisplay:10.37,2013-05-22 05:37:00,
2013-05-22 01:42:00,54.0,51.1,29.91,NW,315,3.6,3.6,90,0.00,CLR,,0.00,WeatherDisplay:10.37,2013-05-22 05:42:00,
2013-05-22 01:47:00,53.8,50.9,29.91,North,0,1.4,5.8,90,0.00,CLR,,0.00,WeatherDisplay:10.37,2013-05-22 05:47:00,
2013-05-22 01:52:00,53.6,50.7,29.91,NNW,338,7.4,7.4,90,0.00,CLR,,0.00,WeatherDisplay:10.37,2013-05-22 05:52:00,
2013-05-22 01:57:00,53.6,51.0,29.90,ENE,68,4.3,4.6,91,0.00,CLR,,0.00,WeatherDisplay:10.37,2013-05-22 05:57:00,
2013-05-22 02:02:00,53.4,50.9,29.90,North,0,2.4,5.8,91,0.00,CLR,,0.00,WeatherDisplay:10.37,2013-05-22 06:02:00,
2013-05-22 02:07:00,53.2,50.7,29.90,North,0,4.9,4.9,91,0.00,CLR,,0.00,WeatherDisplay:10.37,2013-05-22 06:07:00,
2013-05-22 02:12:00,53.2,50.7,29.90,NNE,22,1.1,3.5,91,0.00,CLR,,0.00,WeatherDisplay:10.37,2013-05-22 06:12:00,
2013-05-22 02:17:00,53.2,50.7,29.90,NNW,338,1.6,3.5,91,0.00,CLR,,0.00,WeatherDisplay:10.37,2013-05-22 06:17:00,
2013-05-22 02:22:00,53.2,50.7,29.89,North,0,1.4,9.2,91,0.00,CLR,,0.00,WeatherDisplay:10.37,2013-05-22 06:22:00,
2013-05-22 02:27:00,53.2,50.7,29.90,North,0,6.2,6.2,91,0.00,CLR,,0.00,WeatherDisplay:10.37,2013-05-22 06:27:00,
2013-05-22 02:32:00,53.1,50.5,29.89,North,0,8.5,8.5,91,0.00,CLR,,0.00,WeatherDisplay:10.37,2013-05-22 06:32:00,
2013-05-22 02:37:00,52.9,50.3,29.90,NW,315,6.2,6.2,91,0.00,CLR,,0.00,WeatherDisplay:10.37,2013-05-22 06:37:00,
2013-05-22 02:42:00,52.9,50.3,29.90,WNW,292,8.7,9.2,91,0.00,CLR,,0.00,WeatherDisplay:10.37,2013-05-22 06:42:00,
2013-05-22 02:47:00,52.9,50.3,29.90,East,90,2.9,6.9,91,0.00,CLR,,0.00,WeatherDisplay:10.37,2013-05-22 06:47:00,
2013-05-22 02:52:00,52.7,50.1,29.89,North,0,3.8,9.2,91,0.00,CLR,,0.00,WeatherDisplay:10.37,2013-05-22 06:52:00,
2013-05-22 02:57:00,52.7,50.1,29.89,NE,45,0.7,2.3,91,0.00,CLR,,0.00,WeatherDisplay:10.37,2013-05-22 06:57:00,
2013-05-22 03:02:00,52.7,50.1,29.89,NNE,22,4.7,8.1,91,0.00,CLR,,0.00,WeatherDisplay:10.37,2013-05-22 07:02:00,
2013-05-22 03:07:00,52.5,50.0,29.89,North,0,3.6,5.8,91,0.00,CLR,,0.00,WeatherDisplay:10.37,2013-05-22 07:07:00,
2013-05-22 03:12:00,52.5,50.0,29.89,NNE,22,2.6,5.8,91,0.00,CLR,,0.00,WeatherDisplay:10.37,2013-05-22 07:12:00,
2013-05-22 03:17:00,52.5,50.0,29.88,NE,45,1.8,4.6,91,0.00,CLR,,0.00,WeatherDisplay:10.37,2013-05-22 07:17:00,
2013-05-22 03:22:00,52.5,50.0,29.88,SE,135,2.4,4.6,91,0.00,CLR,,0.00,WeatherDisplay:10.37,2013-05-22 07:22:00,
2013-05-22 03:27:00,52.5,50.0,29.87,ENE,68,0.9,3.5,91,0.00,CLR,,0.00,WeatherDisplay:10.37,2013-05-22 07:27:00,
2013-05-22 03:32:00,52.5,50.0,29.87,ENE,68,3.6,3.6,91,0.00,CLR,,0.00,WeatherDisplay:10.37,2013-05-22 07:32:00,
2013-05-22 03:37:00,52.5,50.0,29.87,NE,45,2.0,4.6,91,0.00,CLR,,0.00,WeatherDisplay:10.37,2013-05-22 07:37:00,
2013-05-22 03:42:00,52.7,50.1,29.87,NE,45,2.0,2.3,91,0.00,CLR,,0.00,WeatherDisplay:10.37,2013-05-22 07:42:00,
2013-05-22 03:47:00,52.7,49.8,29.87,East,90,2.2,4.6,90,0.00,CLR,,0.00,WeatherDisplay:10.37,2013-05-22 07:47:00,
2013-05-22 03:52:00,52.7,49.8,29.87,NE,45,2.9,2.9,90,0.00,CLR,,0.00,WeatherDisplay:10.37,2013-05-22 07:52:00,
2013-05-22 03:57:00,52.9,50.3,29.87,East,90,2.2,4.6,91,0.00,CLR,,0.00,WeatherDisplay:10.37,2013-05-22 07:57:00,
2013-05-22 04:02:00,52.9,50.3,29.87,NE,45,2.4,2.4,91,0.00,CLR,,0.00,WeatherDisplay:10.37,2013-05-22 08:02:00,
2013-05-22 04:07:00,52.9,50.3,29.87,NW,315,0.0,1.1,91,0.00,CLR,,0.00,WeatherDisplay:10.37,2013-05-22 08:07:00,
2013-05-22 04:12:00,52.9,50.3,29.87,ENE,68,0.5,1.1,91,0.00,CLR,,0.00,WeatherDisplay:10.37,2013-05-22 08:12:00,
2013-05-22 04:17:00,53.1,50.5,29.87,SSE,158,0.9,1.1,91,0.00,CLR,,0.00,WeatherDisplay:10.37,2013-05-22 08:17:00,
2013-05-22 04:22:00,53.1,50.5,29.86,SE,135,0.0,0.0,91,0.00,CLR,,0.00,WeatherDisplay:10.37,2013-05-22 08:22:00,
2013-05-22 04:27:00,53.2,50.7,29.86,SSW,202,0.2,1.1,91,0.00,CLR,,0.00,WeatherDisplay:10.37,2013-05-22 08:27:00,
2013-05-22 04:32:00,53.1,50.5,29.87,SW,225,0.7,0.7,91,0.00,CLR,,0.00,WeatherDisplay:10.37,2013-05-22 08:32:00,
2013-05-22 04:37:00,53.1,50.5,29.87,SSW,202,0.5,0.5,91,0.00,CLR,,0.00,WeatherDisplay:10.37,2013-05-22 08:37:00,
2013-05-22 04:42:00,53.1,50.2,29.87,SSW,202,0.0,0.0,90,0.00,CLR,,0.00,WeatherDisplay:10.37,2013-05-22 08:42:00,
2013-05-22 04:47:00,53.1,50.2,29.88,SSW,202,0.0,0.0,90,0.00,CLR,,0.00,WeatherDisplay:10.37,2013-05-22 08:47:00,
2013-05-22 04:52:00,53.1,50.2,29.89,West,270,0.0,0.0,90,0.00,CLR,,0.00,WeatherDisplay:10.37,2013-05-22 08:52:00,
2013-05-22 04:57:00,53.2,50.4,29.88,North,0,0.0,0.0,90,0.00,CLR,,0.00,WeatherDisplay:10.37,2013-05-22 08:57:00,
2013-05-22 05:02:00,53.2,50.4,29.88,West,270,0.0,0.0,90,0.00,CLR,,0.00,WeatherDisplay:10.37,2013-05-22 09:02:00,
2013-05-22 05:07:00,53.4,50.6,29.88,West,270,0.0,0.0,90,0.00,CLR,,0.00,WeatherDisplay:10.37,2013-05-22 09:07:00,
2013-05-22 05:12:00,53.4,50.6,29.88,West,270,0.0,0.0,90,0.00,CLR,,0.00,WeatherDisplay:10.37,2013-05-22 09:12:00,
2013-05-22 05:17:00,53.6,50.7,29.88,West,270,0.0,0.0,90,0.00,CLR,,0.00,WeatherDisplay:10.37,2013-05-22 09:17:00,
2013-05-22 05:22:00,53.6,50.7,29.89,West,270,0.9,0.9,90,0.00,CLR,,0.00,WeatherDisplay:10.37,2013-05-22 09:22:00,
2013-05-22 05:27:00,53.6,50.7,29.90,NW,315,0.9,1.1,90,0.00,CLR,,0.00,WeatherDisplay:10.37,2013-05-22 09:27:00,
2013-05-22 05:32:00,53.4,50.9,29.90,WNW,292,0.2,4.6,91,0.00,CLR,,0.00,WeatherDisplay:10.37,2013-05-22 09:32:00,
2013-05-22 05:37:00,53.6,51.0,29.90,NW,315,0.7,2.3,91,0.00,CLR,,0.00,WeatherDisplay:10.37,2013-05-22 09:37:00,
2013-05-22 05:42:00,53.4,50.9,29.90,SE,135,0.9,1.1,91,0.00,CLR,,0.00,WeatherDisplay:10.37,2013-05-22 09:42:00,
2013-05-22 05:47:00,53.4,50.9,29.89,NE,45,1.1,1.1,91,0.00,CLR,,0.00,WeatherDisplay:10.37,2013-05-22 09:47:00,
2013-05-22 05:52:00,53.4,50.9,29.89,NNW,338,2.0,2.0,91,0.00,CLR,,0.00,WeatherDisplay:10.37,2013-05-22 09:52:00,
2013-05-22 05:57:00,53.4,50.9,29.90,NNW,338,1.6,2.3,91,0.00,CLR,,0.00,WeatherDisplay:10.37,2013-05-22 09:57:00,
2013-05-22 06:02:00,53.6,51.0,29.89,NNE,22,1.1,1.1,91,0.00,CLR,,0.00,WeatherDisplay:10.37,2013-05-22 10:02:00,
2013-05-22 06:07:00,53.6,51.0,29.89,NW,315,0.5,1.1,91,0.00,CLR,,0.00,WeatherDisplay:10.37,2013-05-22 10:07:00,
2013-05-22 06:12:00,53.6,50.7,29.89,North,0,0.7,0.7,90,0.00,CLR,,0.00,WeatherDisplay:10.37,2013-05-22 10:12:00,
2013-05-22 06:17:00,53.8,50.9,29.89,North,0,2.2,2.3,90,0.00,CLR,,0.00,WeatherDisplay:10.37,2013-05-22 10:17:00,
2013-05-22 06:22:00,53.8,50.9,29.89,NNE,22,0.0,0.0,90,0.00,CLR,,0.00,WeatherDisplay:10.37,2013-05-22 10:22:00,
2013-05-22 06:27:00,54.0,51.1,29.88,ESE,112,0.7,0.7,90,0.00,CLR,,0.00,WeatherDisplay:10.37,2013-05-22 10:27:00,
2013-05-22 06:32:00,54.0,51.1,29.88,NE,45,0.5,1.1,90,0.00,CLR,,0.00,WeatherDisplay:10.37,2013-05-22 10:32:00,
2013-05-22 06:37:00,54.1,51.3,29.88,NNE,22,0.2,1.1,90,0.00,CLR,,0.00,WeatherDisplay:10.37,2013-05-22 10:37:00,
2013-05-22 06:42:00,54.3,51.4,29.88,ENE,68,1.6,1.6,90,0.00,CLR,,0.00,WeatherDisplay:10.37,2013-05-22 10:42:00,
2013-05-22 06:47:00,54.5,51.6,29.88,NE,45,0.0,1.1,90,0.00,CLR,,0.00,WeatherDisplay:10.37,2013-05-22 10:47:00,
2013-05-22 06:52:00,54.7,51.8,29.88,SSE,158,0.9,1.1,90,0.00,CLR,,0.00,WeatherDisplay:10.37,2013-05-22 10:52:00,
2013-05-22 06:57:00,55.0,52.2,29.88,SSW,202,1.8,1.8,90,0.00,CLR,,0.00,WeatherDisplay:10.37,2013-05-22 10:57:00,
2013-05-22 07:02:00,55.0,52.2,29.87,SSE,158,0.7,1.1,90,0.00,CLR,,0.00,WeatherDisplay:10.37,2013-05-22 11:02:00,
2013-05-22 07:07:00,55.2,52.3,29.87,SSW,202,1.8,1.8,90,0.00,CLR,,0.00,WeatherDisplay:10.37,2013-05-22 11:07:00,
2013-05-22 07:12:00,55.6,52.4,29.87,SSW,202,0.9,1.1,89,0.00,CLR,,0.00,WeatherDisplay:10.37,2013-05-22 11:12:00,
2013-05-22 07:17:00,55.8,52.9,29.87,SSE,158,1.4,2.3,90,0.00,CLR,,0.00,WeatherDisplay:10.37,2013-05-22 11:17:00,
2013-05-22 07:22:00,56.1,52.9,29.87,South,180,1.1,1.1,89,0.00,CLR,,0.00,WeatherDisplay:10.37,2013-05-22 11:22:00,
2013-05-22 07:27:00,56.5,53.3,29.87,SSE,158,1.8,3.8,89,0.00,CLR,,0.00,WeatherDisplay:10.37,2013-05-22 11:27:00,
2013-05-22 07:32:00,56.5,53.3,29.88,WSW,248,3.3,5.8,89,0.00,CLR,,0.00,WeatherDisplay:10.37,2013-05-22 11:32:00,
2013-05-22 07:37:00,56.5,53.3,29.88,SW,225,4.9,4.9,89,0.00,CLR,,0.00,WeatherDisplay:10.37,2013-05-22 11:37:00,
2013-05-22 07:42:00,56.7,53.5,29.88,SSW,202,1.8,5.8,89,0.00,CLR,,0.00,WeatherDisplay:10.37,2013-05-22 11:42:00,
2013-05-22 07:47:00,56.7,53.5,29.88,South,180,2.4,8.1,89,0.00,CLR,,0.00,WeatherDisplay:10.37,2013-05-22 11:47:00,
2013-05-22 07:52:00,56.8,53.3,29.88,SW,225,4.3,5.8,88,0.00,CLR,,0.00,WeatherDisplay:10.37,2013-05-22 11:52:00,
2013-05-22 07:57:00,57.0,53.5,29.87,South,180,3.3,4.6,88,0.00,CLR,,0.00,WeatherDisplay:10.37,2013-05-22 11:57:00,
2013-05-22 08:02:00,57.2,53.7,29.87,SSE,158,4.0,5.8,88,0.00,CLR,,0.00,WeatherDisplay:10.37,2013-05-22 12:02:00,
2013-05-22 08:07:00,57.6,54.0,29.87,SSW,202,1.8,4.6,88,0.00,CLR,,0.00,WeatherDisplay:10.37,2013-05-22 12:07:00,
2013-05-22 08:12:00,57.6,54.0,29.86,South,180,0.9,3.5,88,0.00,CLR,,0.00,WeatherDisplay:10.37,2013-05-22 12:12:00,
2013-05-22 08:17:00,57.7,54.2,29.87,South,180,4.0,4.6,88,0.00,CLR,,0.00,WeatherDisplay:10.37,2013-05-22 12:17:00,
2013-05-22 08:22:00,57.9,54.4,29.87,SW,225,3.3,4.6,88,0.00,CLR,,0.00,WeatherDisplay:10.37,2013-05-22 12:22:00,
2013-05-22 08:27:00,58.5,54.9,29.86,SSW,202,5.6,5.6,88,0.00,CLR,,0.00,WeatherDisplay:10.37,2013-05-22 12:27:00,
2013-05-22 08:32:00,59.0,55.4,29.86,South,180,2.4,3.5,88,0.00,CLR,,0.00,WeatherDisplay:10.37,2013-05-22 12:32:00,
2013-05-22 08:37:00,59.7,56.2,29.86,South,180,3.3,3.5,88,0.00,CLR,,0.00,WeatherDisplay:10.37,2013-05-22 12:37:00,
2013-05-22 08:42:00,60.1,55.9,29.86,SW,225,8.3,8.3,86,0.00,CLR,,0.00,WeatherDisplay:10.37,2013-05-22 12:42:00,
2013-05-22 08:47:00,60.4,56.2,29.86,SW,225,6.9,6.9,86,0.00,CLR,,0.00,WeatherDisplay:10.37,2013-05-22 12:47:00,
2013-05-22 08:52:00,60.6,56.1,29.86,WSW,248,4.3,4.6,85,0.00,CLR,,0.00,WeatherDisplay:10.37,2013-05-22 12:52:00,
2013-05-22 08:57:00,60.4,55.6,29.86,SSE,158,3.1,3.5,84,0.00,CLR,,0.00,WeatherDisplay:10.37,2013-05-22 12:57:00,
2013-05-22 09:02:00,60.6,56.1,29.86,South,180,6.9,6.9,85,0.00,CLR,,0.00,WeatherDisplay:10.37,2013-05-22 13:02:00,
2013-05-22 09:07:00,60.4,55.6,29.86,WSW,248,5.4,5.8,84,0.00,CLR,,0.00,WeatherDisplay:10.37,2013-05-22 13:07:00,
2013-05-22 09:12:00,59.7,55.2,29.86,WSW,248,4.9,5.8,85,0.00,CLR,,0.00,WeatherDisplay:10.37,2013-05-22 13:12:00,
2013-05-22 09:17:00,59.5,55.0,29.86,SSW,202,3.3,5.8,85,0.00,CLR,,0.00,WeatherDisplay:10.37,2013-05-22 13:17:00,
2013-05-22 09:22:00,59.9,55.7,29.86,WSW,248,2.4,2.4,86,0.00,CLR,,0.00,WeatherDisplay:10.37,2013-05-22 13:22:00,
2013-05-22 09:27:00,60.3,56.1,29.86,SW,225,3.8,4.6,86,0.00,CLR,,0.00,WeatherDisplay:10.37,2013-05-22 13:27:00,
2013-05-22 09:32:00,60.8,56.6,29.86,South,180,5.4,5.8,86,0.00,CLR,,0.00,WeatherDisplay:10.37,2013-05-22 13:32:00,
2013-05-22 09:37:00,61.5,57.0,29.85,SW,225,4.7,6.9,85,0.00,CLR,,0.00,WeatherDisplay:10.37,2013-05-22 13:37:00,
2013-05-22 09:42:00,61.7,57.1,29.86,WSW,248,3.3,5.8,85,0.00,CLR,,0.00,WeatherDisplay:10.37,2013-05-22 13:42:00,
2013-05-22 09:47:00,61.9,57.0,29.85,SSW,202,4.0,4.6,84,0.00,CLR,,0.00,WeatherDisplay:10.37,2013-05-22 13:47:00,
2013-05-22 09:52:00,62.2,57.7,29.85,South,180,3.6,4.7,85,0.00,CLR,,0.00,WeatherDisplay:10.37,2013-05-22 13:52:00,
2013-05-22 09:57:00,62.4,57.2,29.85,SSW,202,6.9,8.1,83,0.00,CLR,,0.00,WeatherDisplay:10.37,2013-05-22 13:57:00,
2013-05-22 10:02:00,62.6,57.4,29.86,SSW,202,2.0,4.6,83,0.00,CLR,,0.00,WeatherDisplay:10.37,2013-05-22 14:02:00,
2013-05-22 10:07:00,62.4,57.2,29.86,SSW,202,6.7,6.9,83,0.00,CLR,,0.00,WeatherDisplay:10.37,2013-05-22 14:07:00,
2013-05-22 10:12:00,62.1,56.8,29.85,SSW,202,4.0,8.1,83,0.00,CLR,,0.00,WeatherDisplay:10.37,2013-05-22 14:12:00,
2013-05-22 10:17:00,62.1,57.2,29.85,SW,225,4.7,4.7,84,0.00,CLR,,0.00,WeatherDisplay:10.37,2013-05-22 14:17:00,
2013-05-22 10:22:00,62.6,57.4,29.86,SE,135,2.4,3.5,83,0.00,CLR,,0.00,WeatherDisplay:10.37,2013-05-22 14:22:00,
2013-05-22 10:27:00,63.0,57.7,29.85,SW,225,3.1,4.6,83,0.00,CLR,,0.00,WeatherDisplay:10.37,2013-05-22 14:27:00,
2013-05-22 10:32:00,63.5,58.2,29.86,North,0,1.1,1.1,83,0.00,CLR,,0.00,WeatherDisplay:10.37,2013-05-22 14:32:00,
2013-05-22 10:37:00,64.4,58.8,29.87,SW,225,1.1,5.8,82,0.00,CLR,,0.00,WeatherDisplay:10.37,2013-05-22 14:37:00,
2013-05-22 10:42:00,64.9,59.3,29.87,WSW,248,1.1,2.3,82,0.00,CLR,,0.00,WeatherDisplay:10.37,2013-05-22 14:42:00,
2013-05-22 10:47:00,65.5,59.8,29.87,SE,135,1.1,2.3,82,0.00,CLR,,0.00,WeatherDisplay:10.37,2013-05-22 14:47:00,
2013-05-22 10:52:00,66.6,60.9,29.87,SSW,202,1.8,2.3,82,0.00,CLR,,0.00,WeatherDisplay:10.37,2013-05-22 14:52:00,
2013-05-22 10:57:00,67.3,60.9,29.87,SE,135,2.4,2.4,80,0.00,CLR,,0.00,WeatherDisplay:10.37,2013-05-22 14:57:00,
2013-05-22 11:02:00,68.4,61.9,29.87,West,270,1.4,3.5,80,0.00,CLR,,0.00,WeatherDisplay:10.37,2013-05-22 15:02:00,
2013-05-22 11:07:00,69.3,62.5,29.87,SW,225,2.0,2.3,79,0.00,CLR,,0.00,WeatherDisplay:10.37,2013-05-22 15:07:00,
2013-05-22 11:12:00,70.2,62.2,29.87,NNW,338,1.6,2.3,76,0.00,CLR,,0.00,WeatherDisplay:10.37,2013-05-22 15:12:00,
2013-05-22 11:17:00,70.9,63.3,29.87,SSW,202,1.8,2.3,77,0.00,CLR,,0.00,WeatherDisplay:10.37,2013-05-22 15:17:00,
2013-05-22 11:22:00,71.8,64.2,29.87,SSW,202,0.9,2.3,77,0.00,CLR,,0.00,WeatherDisplay:10.37,2013-05-22 15:22:00,
2013-05-22 11:27:00,72.7,64.7,29.87,SSW,202,2.4,2.4,76,0.00,CLR,,0.00,WeatherDisplay:10.37,2013-05-22 15:27:00,
2013-05-22 11:32:00,73.2,64.8,29.88,West,270,0.9,2.3,75,0.00,CLR,,0.00,WeatherDisplay:10.37,2013-05-22 15:32:00,
2013-05-22 11:37:00,73.6,64.8,29.87,SSW,202,1.6,3.5,74,0.00,CLR,,0.00,WeatherDisplay:10.37,2013-05-22 15:37:00,
2013-05-22 11:42:00,74.1,64.9,29.88,NW,315,1.8,2.3,73,0.00,CLR,,0.00,WeatherDisplay:10.37,2013-05-22 15:42:00,
2013-05-22 11:47:00,74.5,64.1,29.88,NNW,338,1.8,2.3,70,0.00,CLR,,0.00,WeatherDisplay:10.37,2013-05-22 15:47:00,
2013-05-22 11:52:00,74.1,63.7,29.88,NW,315,0.7,3.5,70,0.00,CLR,,0.00,WeatherDisplay:10.37,2013-05-22 15:52:00,
2013-05-22 11:57:00,74.5,64.5,29.88,NNE,22,3.8,3.8,71,0.00,CLR,,0.00,WeatherDisplay:10.37,2013-05-22 15:57:00,
2013-05-22 12:02:00,74.7,63.8,29.88,NNW,338,1.1,4.6,69,0.00,CLR,,0.00,WeatherDisplay:10.37,2013-05-22 16:02:00,
2013-05-22 12:07:00,74.3,63.9,29.88,SW,225,0.0,1.1,70,0.00,CLR,,0.00,WeatherDisplay:10.37,2013-05-22 16:07:00,
2013-05-22 12:12:00,74.5,64.1,29.88,South,180,0.9,1.1,70,0.00,CLR,,0.00,WeatherDisplay:10.37,2013-05-22 16:12:00,
2013-05-22 12:17:00,74.5,64.1,29.88,NW,315,1.8,2.3,70,0.00,CLR,,0.00,WeatherDisplay:10.37,2013-05-22 16:17:00,
2013-05-22 12:22:00,74.8,64.8,29.88,SSW,202,0.0,1.1,71,0.00,CLR,,0.00,WeatherDisplay:10.37,2013-05-22 16:22:00,
2013-05-22 12:27:00,74.8,64.4,29.87,NW,315,0.7,2.3,70,0.00,CLR,,0.00,WeatherDisplay:10.37,2013-05-22 16:27:00,
2013-05-22 12:32:00,74.8,63.6,29.88,West,270,0.9,1.1,68,0.00,CLR,,0.00,WeatherDisplay:10.37,2013-05-22 16:32:00,
2013-05-22 12:37:00,74.8,64.0,29.88,North,0,1.6,1.6,69,0.00,CLR,,0.00,WeatherDisplay:10.37,2013-05-22 16:37:00,
2013-05-22 12:42:00,74.8,64.0,29.87,NW,315,1.4,3.5,69,0.00,CLR,,0.00,WeatherDisplay:10.37,2013-05-22 16:42:00,
2013-05-22 12:47:00,75.0,64.2,29.87,SW,225,1.8,5.8,69,0.00,CLR,,0.00,WeatherDisplay:10.37,2013-05-22 16:47:00,
2013-05-22 12:52:00,75.4,64.5,29.87,WSW,248,6.9,6.9,69,0.00,CLR,,0.00,WeatherDisplay:10.37,2013-05-22 16:52:00,
2013-05-22 12:57:00,74.8,64.0,29.87,SW,225,1.8,3.5,69,0.00,CLR,,0.00,WeatherDisplay:10.37,2013-05-22 16:57:00,
2013-05-22 13:02:00,74.1,63.7,29.87,South,180,1.8,5.8,70,0.00,CLR,,0.00,WeatherDisplay:10.37,2013-05-22 17:02:00,
2013-05-22 13:07:00,73.4,63.4,29.88,WSW,248,1.6,1.6,71,0.00,CLR,,0.00,WeatherDisplay:10.37,2013-05-22 17:07:00,
2013-05-22 13:12:00,73.0,63.1,29.87,West,270,0.5,2.3,71,0.00,CLR,,0.00,WeatherDisplay:10.37,2013-05-22 17:12:00,
2013-05-22 13:17:00,72.7,63.5,29.88,NE,45,2.2,4.6,73,0.00,CLR,,0.00,WeatherDisplay:10.37,2013-05-22 17:17:00,
2013-05-22 13:22:00,72.1,63.0,29.88,WSW,248,1.4,2.3,73,0.00,CLR,,0.00,WeatherDisplay:10.37,2013-05-22 17:22:00,
2013-05-22 13:27:00,72.0,63.2,29.88,South,180,5.2,5.2,74,0.00,CLR,,0.00,WeatherDisplay:10.37,2013-05-22 17:27:00,
2013-05-22 13:32:00,72.0,63.6,29.87,SW,225,0.5,4.6,75,0.00,CLR,,0.00,WeatherDisplay:10.37,2013-05-22 17:32:00,
2013-05-22 13:37:00,71.8,63.4,29.87,SSW,202,2.4,3.5,75,0.00,CLR,,0.00,WeatherDisplay:10.37,2013-05-22 17:37:00,
2013-05-22 13:42:00,71.8,63.4,29.87,WSW,248,1.1,2.3,75,0.00,CLR,,0.00,WeatherDisplay:10.37,2013-05-22 17:42:00,
2013-05-22 13:47:00,71.8,63.8,29.87,SSW,202,0.5,2.3,76,0.00,CLR,,0.00,WeatherDisplay:10.37,2013-05-22 17:47:00,
2013-05-22 13:52:00,72.0,64.0,29.87,WSW,248,1.6,2.3,76,0.00,CLR,,0.00,WeatherDisplay:10.37,2013-05-22 17:52:00,
2013-05-22 13:57:00,72.5,64.9,29.87,SW,225,0.5,1.1,77,0.00,CLR,,0.00,WeatherDisplay:10.37,2013-05-22 17:57:00,
2013-05-22 14:02:00,72.9,64.8,29.87,West,270,0.5,2.3,76,0.00,CLR,,0.00,WeatherDisplay:10.37,2013-05-22 18:02:00,
2013-05-22 14:07:00,72.5,63.7,29.87,North,0,1.4,2.3,74,0.00,CLR,,0.00,WeatherDisplay:10.37,2013-05-22 18:07:00,
2013-05-22 14:12:00,72.1,63.4,29.87,NNW,338,0.5,3.5,74,0.00,CLR,,0.00,WeatherDisplay:10.37,2013-05-22 18:12:00,
2013-05-22 14:17:00,72.0,63.2,29.87,East,90,0.0,1.1,74,0.00,CLR,,0.00,WeatherDisplay:10.37,2013-05-22 18:17:00,
2013-05-22 14:22:00,72.0,63.2,29.87,North,0,1.6,3.5,74,0.00,CLR,,0.00,WeatherDisplay:10.37,2013-05-22 18:22:00,
2013-05-22 14:27:00,71.8,63.0,29.87,WNW,292,2.2,2.3,74,0.00,CLR,,0.00,WeatherDisplay:10.37,2013-05-22 18:27:00,
2013-05-22 14:32:00,71.6,62.9,29.87,NNE,22,2.4,3.5,74,0.00,CLR,,0.00,WeatherDisplay:10.37,2013-05-22 18:32:00,
2013-05-22 14:37:00,71.2,62.5,29.87,SW,225,0.2,0.2,74,0.00,CLR,,0.00,WeatherDisplay:10.37,2013-05-22 18:37:00,
2013-05-22 14:42:00,70.9,62.6,29.87,WNW,292,0.2,3.5,75,0.00,CLR,,0.00,WeatherDisplay:10.37,2013-05-22 18:42:00,
2013-05-22 14:47:00,70.7,62.8,29.87,West,270,0.9,3.5,76,0.00,CLR,,0.00,WeatherDisplay:10.37,2013-05-22 18:47:00,
2013-05-22 14:52:00,70.3,61.7,29.87,ESE,112,2.4,3.5,74,0.00,CLR,,0.00,WeatherDisplay:10.37,2013-05-22 18:52:00,
2013-05-22 14:57:00,69.6,60.6,29.87,East,90,1.8,2.3,73,0.00,CLR,,0.00,WeatherDisplay:10.37,2013-05-22 18:57:00,
2013-05-22 15:02:00,68.9,59.9,29.87,NW,315,2.0,2.3,73,0.00,CLR,,0.00,WeatherDisplay:10.37,2013-05-22 19:02:00,
2013-05-22 15:07:00,68.4,59.4,29.87,North,0,3.3,3.5,73,0.00,CLR,,0.00,WeatherDisplay:10.37,2013-05-22 19:07:00,
2013-05-22 15:12:00,68.4,59.7,29.87,NE,45,2.6,2.6,74,0.00,CLR,,0.00,WeatherDisplay:10.37,2013-05-22 19:12:00,
2013-05-22 15:17:00,68.0,59.4,29.87,ESE,112,2.6,4.6,74,0.00,CLR,,0.00,WeatherDisplay:10.37,2013-05-22 19:17:00,
2013-05-22 15:22:00,68.0,59.4,29.86,NE,45,1.4,3.5,74,0.00,CLR,,0.00,WeatherDisplay:10.37,2013-05-22 19:22:00,
2013-05-22 15:27:00,68.0,59.4,29.86,NE,45,1.1,2.3,74,0.00,CLR,,0.00,WeatherDisplay:10.37,2013-05-22 19:27:00,
2013-05-22 15:32:00,68.2,59.6,29.86,ENE,68,1.8,4.6,74,0.00,CLR,,0.00,WeatherDisplay:10.37,2013-05-22 19:32:00,
2013-05-22 15:37:00,68.5,59.9,29.86,North,0,3.1,3.5,74,0.00,CLR,,0.00,WeatherDisplay:10.37,2013-05-22 19:37:00,
2013-05-22 15:42:00,68.7,60.1,29.86,NNW,338,3.1,3.5,74,0.00,CLR,,0.00,WeatherDisplay:10.37,2013-05-22 19:42:00,
2013-05-22 15:47:00,68.7,60.1,29.87,ENE,68,1.8,2.3,74,0.00,CLR,,0.00,WeatherDisplay:10.37,2013-05-22 19:47:00,
2013-05-22 15:52:00,68.7,60.1,29.87,North,0,1.8,4.6,74,0.00,CLR,,0.00,WeatherDisplay:10.37,2013-05-22 19:52:00,
2013-05-22 15:57:00,68.5,59.9,29.87,WNW,292,0.9,2.3,74,0.00,CLR,,0.00,WeatherDisplay:10.37,2013-05-22 19:57:00,
2013-05-22 16:02:00,68.7,60.5,29.87,North,0,2.6,2.6,75,0.00,CLR,,0.00,WeatherDisplay:10.37,2013-05-22 20:02:00,
2013-05-22 16:07:00,69.1,60.4,29.87,NW,315,0.7,2.3,74,0.00,CLR,,0.00,WeatherDisplay:10.37,2013-05-22 20:07:00,
2013-05-22 16:12:00,69.1,60.8,29.87,ESE,112,1.8,2.3,75,0.00,CLR,,0.00,WeatherDisplay:10.37,2013-05-22 20:12:00,
2013-05-22 16:17:00,69.3,61.0,29.87,ESE,112,2.4,4.6,75,0.00,CLR,,0.00,WeatherDisplay:10.37,2013-05-22 20:17:00,
2013-05-22 16:22:00,68.7,60.8,29.87,ESE,112,3.3,3.5,76,0.00,CLR,,0.00,WeatherDisplay:10.37,2013-05-22 20:22:00,
2013-05-22 16:27:00,68.0,60.2,29.87,ESE,112,3.1,3.5,76,0.00,CLR,,0.00,WeatherDisplay:10.37,2013-05-22 20:27:00,
2013-05-22 16:32:00,67.6,60.2,29.87,ESE,112,2.4,2.4,77,0.00,CLR,,0.00,WeatherDisplay:10.37,2013-05-22 20:32:00,
2013-05-22 16:37:00,67.3,60.2,29.87,East,90,4.0,4.6,78,0.00,CLR,,0.00,WeatherDisplay:10.37,2013-05-22 20:37:00,
2013-05-22 16:42:00,66.9,60.2,29.87,North,0,1.1,1.1,79,0.00,CLR,,0.00,WeatherDisplay:10.37,2013-05-22 20:42:00,
2013-05-22 16:47:00,66.9,60.2,29.87,SE,135,3.1,4.6,79,0.00,CLR,,0.00,WeatherDisplay:10.37,2013-05-22 20:47:00,
2013-05-22 16:52:00,66.2,59.1,29.87,East,90,1.1,1.1,78,0.00,CLR,,0.00,WeatherDisplay:10.37,2013-05-22 20:52:00,
2013-05-22 16:57:00,65.5,58.4,29.87,SE,135,3.8,3.8,78,0.00,CLR,,0.00,WeatherDisplay:10.37,2013-05-22 20:57:00,
2013-05-22 17:02:00,64.9,57.9,29.87,ENE,68,3.8,3.8,78,0.00,CLR,,0.00,WeatherDisplay:10.37,2013-05-22 21:02:00,
2013-05-22 17:07:00,64.4,57.7,29.87,ENE,68,2.0,4.6,79,0.00,CLR,,0.00,WeatherDisplay:10.37,2013-05-22 21:07:00,
2013-05-22 17:12:00,63.9,57.6,29.87,SE,135,4.7,5.8,80,0.00,CLR,,0.00,WeatherDisplay:10.37,2013-05-22 21:12:00,
2013-05-22 17:17:00,63.5,56.9,29.87,ENE,68,2.6,4.6,79,0.00,CLR,,0.00,WeatherDisplay:10.37,2013-05-22 21:17:00,
2013-05-22 17:22:00,63.1,56.9,29.86,SE,135,2.4,4.6,80,0.00,CLR,,0.00,WeatherDisplay:10.37,2013-05-22 21:22:00,
2013-05-22 17:27:00,62.8,56.5,29.86,SSE,158,1.6,5.8,80,0.00,CLR,,0.00,WeatherDisplay:10.37,2013-05-22 21:27:00,
2013-05-22 17:32:00,62.4,56.5,29.86,ENE,68,3.6,4.6,81,0.00,CLR,,0.00,WeatherDisplay:10.37,2013-05-22 21:32:00,
2013-05-22 17:37:00,62.2,56.7,29.86,ESE,112,3.8,3.8,82,0.00,CLR,,0.00,WeatherDisplay:10.37,2013-05-22 21:37:00,
2013-05-22 17:42:00,61.9,56.3,29.86,SE,135,0.2,2.3,82,0.00,CLR,,0.00,WeatherDisplay:10.37,2013-05-22 21:42:00,
2013-05-22 17:47:00,61.7,56.1,29.86,SSE,158,0.9,2.3,82,0.00,CLR,,0.00,WeatherDisplay:10.37,2013-05-22 21:47:00,
2013-05-22 17:52:00,61.5,56.3,29.86,SSE,158,2.4,2.4,83,0.00,CLR,,0.00,WeatherDisplay:10.37,2013-05-22 21:52:00,
2013-05-22 17:57:00,61.5,56.3,29.86,East,90,2.2,2.3,83,0.00,CLR,,0.00,WeatherDisplay:10.37,2013-05-22 21:57:00,
2013-05-22 18:02:00,61.3,56.5,29.85,SE,135,0.5,2.3,84,0.00,CLR,,0.00,WeatherDisplay:10.37,2013-05-22 22:02:00,
2013-05-22 18:07:00,61.2,56.3,29.86,South,180,2.2,2.2,84,0.00,CLR,,0.00,WeatherDisplay:10.37,2013-05-22 22:07:00,
2013-05-22 18:12:00,61.2,56.3,29.85,SSW,202,2.4,3.5,84,0.00,CLR,,0.00,WeatherDisplay:10.37,2013-05-22 22:12:00,
2013-05-22 18:17:00,61.2,56.6,29.85,South,180,0.5,1.1,85,0.00,CLR,,0.00,WeatherDisplay:10.37,2013-05-22 22:17:00,
2013-05-22 18:22:00,61.2,56.3,29.86,SE,135,2.4,4.6,84,0.00,CLR,,0.00,WeatherDisplay:10.37,2013-05-22 22:22:00,
2013-05-22 18:27:00,61.2,56.3,29.86,SSE,158,1.6,3.5,84,0.00,CLR,,0.00,WeatherDisplay:10.37,2013-05-22 22:27:00,
2013-05-22 18:32:00,61.0,56.1,29.86,SSE,158,0.5,1.1,84,0.00,CLR,,0.00,WeatherDisplay:10.37,2013-05-22 22:32:00,
2013-05-22 18:37:00,61.2,56.3,29.86,SSE,158,0.5,2.3,84,0.00,CLR,,0.00,WeatherDisplay:10.37,2013-05-22 22:37:00,
2013-05-22 18:42:00,61.3,56.8,29.86,South,180,1.1,1.1,85,0.00,CLR,,0.00,WeatherDisplay:10.37,2013-05-22 22:42:00,
2013-05-22 18:47:00,61.5,57.0,29.86,South,180,1.1,2.3,85,0.00,CLR,,0.00,WeatherDisplay:10.37,2013-05-22 22:47:00,
2013-05-22 18:52:00,61.5,57.3,29.86,South,180,1.6,2.3,86,0.00,CLR,,0.00,WeatherDisplay:10.37,2013-05-22 22:52:00,
2013-05-22 18:57:00,61.5,57.3,29.86,South,180,0.5,2.3,86,0.00,CLR,,0.00,WeatherDisplay:10.37,2013-05-22 22:57:00,
2013-05-22 19:02:00,61.5,57.3,29.86,SSW,202,0.5,2.3,86,0.00,CLR,,0.00,WeatherDisplay:10.37,2013-05-22 23:02:00,
2013-05-22 19:07:00,61.5,57.0,29.86,WSW,248,3.8,3.8,85,0.00,CLR,,0.00,WeatherDisplay:10.37,2013-05-22 23:07:00,
2013-05-22 19:12:00,61.5,57.0,29.86,SW,225,2.2,2.3,85,0.00,CLR,,0.00,WeatherDisplay:10.37,2013-05-22 23:12:00,
2013-05-22 19:17:00,61.5,57.0,29.86,WSW,248,2.2,2.3,85,0.00,CLR,,0.00,WeatherDisplay:10.37,2013-05-22 23:17:00,
2013-05-22 19:22:00,61.3,57.1,29.86,South,180,1.8,3.5,86,0.00,CLR,,0.00,WeatherDisplay:10.37,2013-05-22 23:22:00,
2013-05-22 19:27:00,61.3,57.1,29.86,SSE,158,3.3,4.6,86,0.00,CLR,,0.00,WeatherDisplay:10.37,2013-05-22 23:27:00,
2013-05-22 19:32:00,61.0,57.1,29.86,SSW,202,3.6,3.6,87,0.00,CLR,,0.00,WeatherDisplay:10.37,2013-05-22 23:32:00,
2013-05-22 19:37:00,60.8,56.9,29.86,South,180,1.1,3.5,87,0.00,CLR,,0.00,WeatherDisplay:10.37,2013-05-22 23:37:00,
2013-05-22 19:42:00,60.8,56.9,29.86,SW,225,1.8,4.6,87,0.00,CLR,,0.00,WeatherDisplay:10.37,2013-05-22 23:42:00,
2013-05-22 19:47:00,60.6,56.7,29.86,SSW,202,1.8,2.3,87,0.00,CLR,,0.00,WeatherDisplay:10.37,2013-05-22 23:47:00,
2013-05-22 19:52:00,60.6,56.7,29.86,SSW,202,1.8,2.3,87,0.00,CLR,,0.00,WeatherDisplay:10.37,2013-05-22 23:52:00,
2013-05-22 19:57:00,60.4,56.6,29.86,SW,225,3.3,5.8,87,0.00,CLR,,0.00,WeatherDisplay:10.37,2013-05-22 23:57:00,
2013-05-22 20:02:00,60.3,56.7,29.86,SW,225,4.7,4.7,88,0.00,CLR,,0.00,WeatherDisplay:10.37,2013-05-23 00:02:00,
2013-05-22 20:07:00,60.3,56.7,29.86,SSW,202,1.1,4.6,88,0.00,CLR,,0.00,WeatherDisplay:10.37,2013-05-23 00:07:00,
2013-05-22 20:12:00,60.1,56.5,29.86,SSW,202,2.0,4.6,88,0.00,CLR,,0.00,WeatherDisplay:10.37,2013-05-23 00:12:00,
2013-05-22 20:17:00,60.1,56.5,29.86,WSW,248,0.5,4.6,88,0.00,CLR,,0.00,WeatherDisplay:10.37,2013-05-23 00:17:00,
2013-05-22 20:22:00,60.3,57.0,29.86,SSW,202,2.4,4.6,89,0.00,CLR,,0.00,WeatherDisplay:10.37,2013-05-23 00:22:00,
2013-05-22 20:27:00,60.3,57.0,29.86,South,180,0.5,1.1,89,0.00,CLR,,0.00,WeatherDisplay:10.37,2013-05-23 00:27:00,
2013-05-22 20:32:00,60.3,57.0,29.86,SSW,202,1.8,2.3,89,0.00,CLR,,0.00,WeatherDisplay:10.37,2013-05-23 00:32:00,
2013-05-22 20:37:00,60.3,57.0,29.87,SSW,202,2.4,5.8,89,0.00,CLR,,0.00,WeatherDisplay:10.37,2013-05-23 00:37:00,
2013-05-22 20:42:00,60.3,57.0,29.87,SW,225,3.3,3.5,89,0.00,CLR,,0.00,WeatherDisplay:10.37,2013-05-23 00:42:00,
2013-05-22 20:47:00,60.3,57.0,29.87,West,270,1.8,4.6,89,0.00,CLR,,0.00,WeatherDisplay:10.37,2013-05-23 00:47:00,
2013-05-22 20:52:00,60.3,57.0,29.87,SSW,202,3.8,3.8,89,0.00,CLR,,0.00,WeatherDisplay:10.37,2013-05-23 00:52:00,
2013-05-22 20:57:00,60.4,57.2,29.87,South,180,2.6,2.6,89,0.00,CLR,,0.00,WeatherDisplay:10.37,2013-05-23 00:57:00,
2013-05-22 21:02:00,60.4,57.2,29.87,SW,225,3.1,3.1,89,0.00,CLR,,0.00,WeatherDisplay:10.37,2013-05-23 01:02:00,
2013-05-22 21:07:00,60.4,57.2,29.87,SSW,202,0.7,1.1,89,0.00,CLR,,0.00,WeatherDisplay:10.37,2013-05-23 01:07:00,
2013-05-22 21:12:00,60.4,57.2,29.88,SSW,202,0.7,1.1,89,0.00,CLR,,0.00,WeatherDisplay:10.37,2013-05-23 01:12:00,
2013-05-22 21:17:00,60.4,57.2,29.88,SW,225,2.2,2.3,89,0.00,CLR,,0.00,WeatherDisplay:10.37,2013-05-23 01:17:00,
2013-05-22 21:22:00,60.6,57.4,29.88,South,180,2.6,3.5,89,0.00,CLR,,0.00,WeatherDisplay:10.37,2013-05-23 01:22:00,
2013-05-22 21:27:00,60.8,57.8,29.87,SW,225,2.4,4.6,90,0.00,CLR,,0.00,WeatherDisplay:10.37,2013-05-23 01:27:00,
2013-05-22 21:32:00,60.8,57.8,29.88,SSW,202,1.8,3.5,90,0.00,CLR,,0.00,WeatherDisplay:10.37,2013-05-23 01:32:00,
2013-05-22 21:37:00,60.8,57.8,29.88,SSW,202,2.6,2.6,90,0.00,CLR,,0.00,WeatherDisplay:10.37,2013-05-23 01:37:00,
2013-05-22 21:42:00,60.8,57.8,29.88,SSW,202,0.9,2.7,90,0.00,CLR,,0.00,WeatherDisplay:10.37,2013-05-23 01:42:00,
2013-05-22 21:47:00,61.0,58.0,29.88,South,180,4.3,4.3,90,0.00,CLR,,0.00,WeatherDisplay:10.37,2013-05-23 01:47:00,
2013-05-22 21:52:00,61.0,58.0,29.88,SSW,202,4.7,4.7,90,0.00,CLR,,0.00,WeatherDisplay:10.37,2013-05-23 01:52:00,
2013-05-22 21:57:00,61.2,58.2,29.88,SW,225,4.3,4.3,90,0.00,CLR,,0.00,WeatherDisplay:10.37,2013-05-23 01:57:00,
2013-05-22 22:02:00,61.0,58.0,29.89,SSW,202,3.1,6.9,90,0.00,CLR,,0.00,WeatherDisplay:10.37,2013-05-23 02:02:00,
2013-05-22 22:07:00,61.0,58.0,29.89,West,270,1.8,3.5,90,0.00,CLR,,0.00,WeatherDisplay:10.37,2013-05-23 02:07:00,
2013-05-22 22:12:00,60.8,57.8,29.89,SSW,202,0.5,2.7,90,0.00,CLR,,0.00,WeatherDisplay:10.37,2013-05-23 02:12:00,
2013-05-22 22:17:00,60.8,57.8,29.89,SW,225,2.4,2.7,90,0.00,CLR,,0.00,WeatherDisplay:10.37,2013-05-23 02:17:00,
2013-05-22 22:22:00,60.8,57.8,29.89,SSW,202,3.1,3.5,90,0.00,CLR,,0.00,WeatherDisplay:10.37,2013-05-23 02:22:00,
2013-05-22 22:27:00,60.8,57.8,29.90,SSW,202,1.6,4.6,90,0.00,CLR,,0.00,WeatherDisplay:10.37,2013-05-23 02:27:00,
2013-05-22 22:32:00,60.8,57.8,29.90,SW,225,2.4,2.4,90,0.00,CLR,,0.00,WeatherDisplay:10.37,2013-05-23 02:32:00,
2013-05-22 22:37:00,60.8,57.8,29.90,SSW,202,4.0,4.6,90,0.00,CLR,,0.00,WeatherDisplay:10.37,2013-05-23 02:37:00,
2013-05-22 22:42:00,60.8,57.8,29.90,SSW,202,0.7,3.5,90,0.00,CLR,,0.00,WeatherDisplay:10.37,2013-05-23 02:42:00,
2013-05-22 22:47:00,60.8,57.8,29.90,SSW,202,0.7,2.3,90,0.01,RA,,0.01,WeatherDisplay:10.37,2013-05-23 02:47:00,
2013-05-22 22:52:00,60.8,57.8,29.90,SW,225,1.4,2.3,90,0.01,RA,,0.01,WeatherDisplay:10.37,2013-05-23 02:52:00,
2013-05-22 22:57:00,60.8,57.8,29.89,SW,225,0.2,2.7,90,0.01,,,0.01,WeatherDisplay:10.37,2013-05-23 02:57:00,
2013-05-22 23:02:00,60.8,57.8,29.89,SSW,202,2.0,2.3,90,0.01,CLR,,0.01,WeatherDisplay:10.37,2013-05-23 03:02:00,
2013-05-22 23:07:00,61.0,58.0,29.89,SW,225,0.2,2.7,90,0.01,CLR,,0.01,WeatherDisplay:10.37,2013-05-23 03:07:00,
2013-05-22 23:12:00,61.0,58.0,29.89,SSW,202,1.8,2.7,90,0.01,CLR,,0.01,WeatherDisplay:10.37,2013-05-23 03:12:00,
2013-05-22 23:17:00,61.2,58.2,29.89,South,180,2.0,4.6,90,0.01,CLR,,0.01,WeatherDisplay:10.37,2013-05-23 03:17:00,
2013-05-22 23:22:00,61.2,58.2,29.89,SW,225,1.4,2.7,90,0.01,CLR,,0.01,WeatherDisplay:10.37,2013-05-23 03:22:00,
2013-05-22 23:27:00,61.2,58.2,29.89,WSW,248,2.4,5.8,90,0.01,CLR,,0.01,WeatherDisplay:10.37,2013-05-23 03:27:00,
2013-05-22 23:32:00,61.3,58.4,29.89,SW,225,2.2,4.6,90,0.01,CLR,,0.01,WeatherDisplay:10.37,2013-05-23 03:32:00,
2013-05-22 23:37:00,61.3,58.4,29.89,SW,225,3.3,5.8,90,0.01,CLR,,0.01,WeatherDisplay:10.37,2013-05-23 03:37:00,
2013-05-22 23:42:00,61.5,58.9,29.89,South,180,4.0,5.8,91,0.01,CLR,,0.01,WeatherDisplay:10.37,2013-05-23 03:42:00,
2013-05-22 23:47:00,61.5,58.9,29.88,SW,225,1.8,3.5,91,0.00,CLR,,0.01,WeatherDisplay:10.37,2013-05-23 03:47:00,
2013-05-22 23:52:00,61.7,59.0,29.89,SW,225,4.7,4.7,91,0.00,CLR,,0.01,WeatherDisplay:10.37,2013-05-23 03:52:00,
2013-05-22 23:57:00,61.9,59.5,29.89,SW,225,5.2,5.2,92,0.00,CLR,,0.01,WeatherDisplay:10.37,2013-05-23 03:57:00,